STARLINK-3884, 52497

Orbit data source: Space-Track

STARLINK-3884, 52497 is a payload satellite owned by SpaceX/Seattle (US) in LEO that was launched on Fri, 06 May 2022 UTC via an FALCON 9 launch vehicle from the Air Force Eastern Test Range (AFETR). Payload-class satellites include a variety of spacecraft equipped with specific instruments for various scientific and technological missions. These include communications satellites like Starlink; space stations such as the ISS; scientific satellites like the Hubble; Earth observation satellites from companies like Planet Labs, Umbra, and HawkEye 360; GPS; miniature CubeSats for education and research; and military/defense satellites.

Loading next visibility...
Identifier
52497, 2022-049AY
Orbit
LEO
Country
Flag of USUS
Related business
Manufacturer
SpaceX/Seattle
Mission
Operational Commercial Communications
Bus & Motor
STARLINK, Unknown motor
Mass
297 kg wet, ~220 kg dry
Launch date (UTC)
2022-05-06 (4 years ago)
Launch vehicle
FALCON 9
Launch site
Air Force Eastern Test Range (AFETR)
Object type
Payload
Rocket body
Debris
Shape & HBR
Box + 1 Pan, 10.1 m
Radar Cross Section
13.562 m², Large (>1 m²)

Expand to show TLE details & history
Last TLE update: 3 days ago

TLE from 3 days ago
0 STARLINK-3884
1 52497U 22049AY  26170.62779781  .00000334  00000-0  39070-4 0  9990
2 52497  53.1598 311.3885 0001139  82.2453 277.8668 15.08830581227786
Epoch: 2026-06-19T15:04Z
TLE epoch observation values (Epoch: 2026-06-19T15:04:01.730Z)
Latitude
-0.00001°
Longitude
177.52723°
Altitude
540.556 km
Speed
7.593 km/s
True Right ascension
20h 45m 33s
True Declination
0° 00' 00"
Sunlit
Object was in full shadow at epoch
Visualization orbit readout
Latitude
Unknown
Longitude
Unknown
Altitude
Unknown
Speed
Unknown
Apparent Right ascension
Unknown
Apparent Declination
Unknown
Sunlit
N/A
Visualization observer readout
Local Sidereal Time
21:40:44
Azimuth
Unknown
Elevation
Unknown
Doppler factor
Unknown
Orbital elements
Apogee altitude
540.814 km
Perigee altitude
539.238 km
Semi-major axis
6,918.163 km
Eccentricity
0.00011
Inclination
53.1598°
RAAN
311.3885°
Arg. of periapsis
82.2453°
True anomaly
277.85387°
Mean anomaly
277.8668°
Eccentric anomaly
277.86034°
Mean motion
3.77187 °/min
Orbital period
95.44 mins
BSTAR
0.00003907
Loading maneuver chart data...
Computing Atmospheric mass density...
Loading historical data...
Loading historical data...
Loading historical data...
Loading historical data...
Loading historical data...
Loading historical data...
Loading historical data...

Documentation

Showing up to 5 results
|